QPF
0.03 0.03 0.02 0.01 0.02 0.02 0.03 0.03 0.04 0.03 0.02 0.02 0.02 0.01 0.02 0.01 0.01 0.01 0.00 0.01 0.02 0.02 0.02 0.02 0.05 0.09 0.09 0.06 0.06 0.06 0.07 0.09 0.12 0.12 0.12 0.12 0.13 0.13
0.02 0.02 0.01 0.01 0.01 0.01 0.01 0.02 0.03 0.03 0.02 0.01 0.03 0.01 0.01 0.01 0.01 0.01 0.01 0.01 0.02 0.02 0.02 0.03 0.05 0.09 0.11 0.06 0.06 0.06 0.07 0.07 0.08 0.09 0.10 0.12 0.13 0.13
0.02 0.01 0.01 0.01 0.00 0.00 0.01 0.01 0.02 0.02 0.02 0.01 0.02 0.02 0.01 0.00 0.01 0.01 0.01 0.01 0.01 0.02 0.02 0.02 0.03 0.07 0.10 0.08 0.06 0.06 0.06 0.06 0.08 0.09 0.09 0.10 0.11 0.12
0.02 0.01 0.01 0.00 0.00 0.00 0.01 0.01 0.02 0.02 0.03 0.02 0.02 0.02 0.01 0.01 0.01 0.01 0.01 0.01 0.01 0.01 0.02 0.02 0.02 0.03 0.05 0.07 0.08 0.06 0.06 0.05 0.06 0.07 0.09 0.10 0.10 0.10
0.04 0.03 0.02 0.02 0.01 0.01 0.01 0.02 0.02 0.03 0.03 0.03 0.04 0.02 0.01 0.01 0.01 0.01 0.01 0.01 0.01 0.01 0.02 0.02 0.02 0.03 0.03 0.05 0.07 0.07 0.05 0.04 0.04 0.05 0.06 0.08 0.08 0.08
0.03 0.03 0.03 0.02 0.02 0.02 0.01 0.01 0.02 0.02 0.02 0.02 0.03 0.03 0.02 0.02 0.02 0.02 0.01 0.01 0.01 0.02 0.02 0.02 0.02 0.03 0.04 0.05 0.07 0.06 0.05 0.04 0.04 0.03 0.04 0.05 0.06 0.06
0.03 0.04 0.04 0.03 0.02 0.02 0.02 0.01 0.01 0.01 0.01 0.01 0.02 0.03 0.02 0.01 0.03 0.02 0.02 0.02 0.02 0.02 0.03 0.03 0.03 0.02 0.03 0.04 0.05 0.05 0.05 0.04 0.05 0.05 0.04 0.03 0.04 0.04
0.03 0.04 0.05 0.04 0.03 0.03 0.02 0.02 0.02 0.01 0.01 0.02 0.02 0.02 0.02 0.01 0.03 0.04 0.02 0.02 0.03 0.03 0.03 0.03 0.02 0.02 0.02 0.03 0.04 0.04 0.04 0.04 0.05 0.06 0.07 0.07 0.06 0.05
0.03 0.04 0.06 0.06 0.05 0.04 0.03 0.03 0.02 0.02 0.02 0.02 0.02 0.02 0.01 0.01 0.02 0.04 0.03 0.02 0.03 0.03 0.04 0.04 0.03 0.03 0.03 0.04 0.06 0.06 0.06 0.07 0.07 0.07 0.08 0.10 0.10 0.09
0.04 0.05 0.06 0.06 0.07 0.07 0.05 0.04 0.03 0.03 0.03 0.03 0.02 0.02 0.02 0.02 0.02 0.04 0.04 0.03 0.04 0.04 0.05 0.06 0.05 0.04 0.05 0.05 0.06 0.07 0.07 0.07 0.07 0.06 0.06 0.07 0.08 0.07
0.03 0.04 0.04 0.05 0.05 0.05 0.03 0.02 0.02 0.03 0.03 0.02 0.01 0.01 0.02 0.03 0.02 0.03 0.04 0.04 0.03 0.02 0.02 0.03 0.05 0.04 0.03 0.03 0.03 0.04 0.03 0.03 0.02 0.02 0.02 0.03 0.05 0.05
0.02 0.02 0.02 0.03 0.04 0.03 0.02 0.01 0.01 0.01 0.02 0.02 0.02 0.02 0.02 0.02 0.02 0.02 0.02 0.03 0.03 0.03 0.02 0.02 0.02 0.03 0.03 0.03 0.02 0.02 0.02 0.02 0.02 0.02 0.02 0.02 0.03 0.04
0.01 0.01 0.02 0.03 0.04 0.03 0.03 0.02 0.01 0.01 0.01 0.01 0.01 0.01 0.02 0.01 0.01 0.02 0.03 0.03 0.03 0.03 0.03 0.03 0.03 0.03 0.03 0.03 0.02 0.02 0.02 0.02 0.02 0.02 0.02 0.02 0.02 0.02
0.01 0.01 0.02 0.03 0.03 0.03 0.03 0.03 0.02 0.02 0.02 0.01 0.01 0.01 0.01 0.01 0.01 0.01 0.01 0.02 0.02 0.03 0.03 0.03 0.04 0.06 0.06 0.05 0.03 0.02 0.02 0.02 0.02 0.02 0.02 0.03 0.03 0.03
0.01 0.02 0.02 0.03 0.04 0.04 0.04 0.03 0.02 0.02 0.02 0.02 0.02 0.01 0.01 0.01 0.01 0.01 0.01 0.01 0.02 0.02 0.03 0.03 0.03 0.04 0.06 0.08 0.06 0.03 0.03 0.03 0.03 0.02 0.02 0.02 0.02 0.02
0.01 0.01 0.01 0.02 0.04 0.05 0.04 0.02 0.02 0.02 0.02 0.02 0.02 0.02 0.02 0.01 0.01 0.01 0.01 0.01 0.01 0.02 0.02 0.02 0.02 0.03 0.03 0.05 0.06 0.05 0.04 0.03 0.03 0.02 0.02 0.02 0.02 0.02
0.01 0.00 0.01 0.01 0.02 0.03 0.04 0.03 0.02 0.02 0.02 0.02 0.02 0.02 0.02 0.01 0.01 0.01 0.01 0.01 0.01 0.01 0.01 0.02 0.02 0.03 0.03 0.04 0.05 0.04 0.03 0.03 0.03 0.03 0.03 0.02 0.02 0.02
0.01 0.00 0.01 0.01 0.01 0.01 0.02 0.03 0.02 0.02 0.02 0.01 0.02 0.02 0.02 0.02 0.02 0.02 0.02 0.02 0.01 0.01 0.01 0.02 0.03 0.04 0.05 0.05 0.04 0.03 0.03 0.02 0.02 0.03 0.03 0.02 0.01 0.01
0.00 0.00 0.01 0.01 0.01 0.01 0.02 0.02 0.02 0.01 0.01 0.01 0.02 0.02 0.02 0.02 0.02 0.02 0.02 0.02 0.02 0.02 0.02 0.02 0.03 0.04 0.05 0.05 0.04 0.04 0.04 0.03 0.02 0.03 0.03 0.02 0.01 0.01
0.01 0.01 0.01 0.01 0.01 0.01 0.02 0.02 0.02 0.01 0.01 0.01 0.01 0.01 0.02 0.02 0.02 0.02 0.02 0.02 0.02 0.02 0.02 0.03 0.03 0.04 0.05 0.05 0.04 0.05 0.05 0.04 0.04 0.04 0.05 0.03 0.02 0.02
0.01 0.00 0.00 0.01 0.01 0.01 0.02 0.02 0.01 0.01 0.01 0.01 0.01 0.01 0.01 0.01 0.01 0.01 0.01 0.02 0.02 0.02 0.02 0.03 0.03 0.04 0.05 0.05 0.05 0.04 0.04 0.04 0.04 0.05 0.05 0.04 0.03 0.02
0.00 0.00 0.00 0.00 0.01 0.01 0.01 0.01 0.01 0.01 0.01 0.01 0.01 0.01 0.01 0.01 0.01 0.01 0.01 0.01 0.02 0.02 0.02 0.03 0.03 0.03 0.03 0.04 0.04 0.04 0.03 0.03 0.03 0.04 0.04 0.03 0.03 0.03
0.01 0.01 0.00 0.00 0.01 0.01 0.01 0.01 0.01 0.01 0.01 0.01 0.01 0.01 0.01 0.01 0.01 0.01 0.01 0.01 0.01 0.02 0.03 0.04 0.04 0.04 0.04 0.05 0.05 0.05 0.05 0.05 0.04 0.03 0.02 0.02 0.02 0.03
MSLP
1010.75 1010.57 1010.38 1010.16 1009.87 1009.47 1008.98 1008.38 1007.71 1006.99 1006.27 1005.59 1004.99 1004.48 1004.07 1003.76 1003.53 1003.37 1003.26 1003.18 1003.13 1003.11 1003.11 1003.14 1003.20 1003.28 1003.38 1003.49 1003.60 1003.71 1003.80 1003.89 1003.99 1004.11 1004.26 1004.48 1004.76 1005.13
1009.75 1009.48 1009.22 1008.94 1008.62 1008.22 1007.74 1007.19 1006.57 1005.92 1005.26 1004.63 1004.05 1003.55 1003.13 1002.78 1002.51 1002.31 1002.15 1002.03 1001.96 1001.93 1001.94 1001.99 1002.08 1002.22 1002.38 1002.55 1002.73 1002.91 1003.07 1003.22 1003.37 1003.53 1003.71 1003.94 1004.22 1004.57
1008.75 1008.39 1008.04 1007.70 1007.34 1006.94 1006.49 1005.99 1005.44 1004.87 1004.28 1003.71 1003.18 1002.70 1002.27 1001.90 1001.59 1001.33 1001.12 1000.96 1000.85 1000.79 1000.78 1000.84 1000.95 1001.10 1001.30 1001.53 1001.77 1002.02 1002.26 1002.48 1002.70 1002.92 1003.15 1003.41 1003.70 1004.04
1007.77 1007.31 1006.89 1006.48 1006.09 1005.68 1005.26 1004.81 1004.34 1003.84 1003.34 1002.84 1002.35 1001.90 1001.48 1001.09 1000.75 1000.45 1000.19 999.99 999.83 999.73 999.70 999.73 999.83 999.99 1000.20 1000.46 1000.74 1001.04 1001.34 1001.65 1001.94 1002.24 1002.53 1002.84 1003.16 1003.51
1006.80 1006.27 1005.77 1005.31 1004.88 1004.48 1004.08 1003.67 1003.26 1002.84 1002.40 1001.97 1001.53 1001.11 1000.70 1000.32 999.97 999.64 999.36 999.12 998.93 998.79 998.72 998.71 998.78 998.91 999.10 999.35 999.65 999.98 1000.33 1000.70 1001.08 1001.45 1001.82 1002.19 1002.57 1002.94
1005.82 1005.24 1004.69 1004.19 1003.74 1003.32 1002.93 1002.56 1002.19 1001.82 1001.44 1001.05 1000.67 1000.28 999.90 999.53 999.19 998.87 998.58 998.33 998.12 997.95 997.85 997.79 997.81 997.89 998.03 998.25 998.53 998.87 999.25 999.67 1000.11 1000.57 1001.02 1001.47 1001.91 1002.33
1004.83 1004.21 1003.63 1003.11 1002.63 1002.21 1001.82 1001.46 1001.11 1000.77 1000.42 1000.07 999.72 999.36 999.02 998.69 998.38 998.09 997.82 997.59 997.38 997.20 997.07 996.97 996.93 996.94 997.02 997.18 997.42 997.74 998.13 998.58 999.08 999.61 1000.15 1000.68 1001.20 1001.69
1003.81 1003.18 1002.59 1002.06 1001.57 1001.14 1000.74 1000.38 1000.03 999.69 999.35 999.01 998.68 998.36 998.05 997.76 997.50 997.26 997.04 996.85 996.66 996.50 996.34 996.21 996.11 996.06 996.07 996.16 996.34 996.62 997.00 997.48 998.02 998.62 999.24 999.87 1000.47 1001.04
1002.79 1002.17 1001.59 1001.06 1000.57 1000.13 999.72 999.34 998.97 998.61 998.26 997.92 997.59 997.28 997.01 996.76 996.55 996.38 996.22 996.08 995.94 995.79 995.64 995.48 995.34 995.22 995.16 995.18 995.31 995.55 995.91 996.40 996.98 997.64 998.34 999.06 999.75 1000.40
1001.82 1001.23 1000.68 1000.16 999.68 999.23 998.81 998.40 998.00 997.61 997.23 996.86 996.52 996.22 995.95 995.74 995.58 995.46 995.36 995.27 995.18 995.06 994.92 994.75 994.57 994.40 994.28 994.24 994.32 994.52 994.87 995.36 995.98 996.69 997.47 998.26 999.04 999.77
1000.98 1000.42 999.90 999.41 998.94 998.49 998.06 997.63 997.20 996.77 996.35 995.95 995.57 995.25 994.98 994.78 994.64 994.55 994.49 994.44 994.38 994.28 994.15 993.97 993.77 993.57 993.41 993.33 993.36 993.54 993.88 994.38 995.02 995.78 996.61 997.47 998.32 999.12
1000.32 999.80 999.32 998.86 998.41 997.98 997.54 997.09 996.64 996.17 995.70 995.25 994.84 994.47 994.18 993.95 993.80 993.71 993.65 993.61 993.56 993.47 993.33 993.15 992.93 992.71 992.52 992.41 992.42 992.59 992.92 993.43 994.09 994.89 995.76 996.68 997.57 998.42
999.90 999.42 998.97 998.55 998.13 997.71 997.28 996.83 996.35 995.85 995.35 994.85 994.38 993.96 993.61 993.33 993.13 992.99 992.90 992.83 992.75 992.64 992.48 992.29 992.06 991.82 991.62 991.50 991.50 991.66 991.99 992.51 993.19 994.00 994.90 995.84 996.77 997.65
999.73 999.29 998.88 998.48 998.10 997.70 997.29 996.84 996.36 995.84 995.30 994.76 994.23 993.75 993.32 992.96 992.67 992.45 992.28 992.14 992.00 991.85 991.66 991.43 991.18 990.94 990.73 990.61 990.61 990.77 991.11 991.62 992.31 993.12 994.03 994.99 995.93 996.82
999.82 999.40 999.01 998.64 998.29 997.92 997.53 997.10 996.62 996.10 995.55 994.97 994.38 993.82 993.30 992.84 992.45 992.12 991.84 991.60 991.37 991.14 990.90 990.64 990.37 990.12 989.92 989.80 989.80 989.96 990.30 990.81 991.49 992.30 993.20 994.15 995.09 995.99
1000.11 999.71 999.33 998.99 998.66 998.32 997.96 997.56 997.10 996.59 996.03 995.42 994.79 994.16 993.55 992.98 992.46 992.00 991.60 991.23 990.91 990.60 990.29 989.99 989.70 989.44 989.24 989.13 989.14 989.30 989.63 990.13 990.79 991.58 992.47 993.40 994.34 995.23
1000.57 1000.16 999.80 999.47 999.16 998.85 998.52 998.15 997.73 997.24 996.68 996.06 995.39 994.70 994.00 993.32 992.69 992.10 991.56 991.08 990.65 990.26 989.89 989.55 989.24 988.98 988.79 988.68 988.70 988.87 989.19 989.67 990.30 991.06 991.92 992.84 993.77 994.67
1001.14 1000.73 1000.36 1000.03 999.74 999.45 999.16 998.83 998.44 997.98 997.43 996.81 996.12 995.38 994.61 993.85 993.10 992.40 991.75 991.16 990.64 990.17 989.75 989.39 989.07 988.82 988.64 988.55 988.57 988.73 989.04 989.50 990.10 990.83 991.66 992.55 993.47 994.38
1001.79 1001.36 1000.98 1000.66 1000.37 1000.10 999.84 999.54 999.19 998.76 998.24 997.62 996.92 996.15 995.33 994.49 993.66 992.86 992.12 991.45 990.86 990.34 989.89 989.52 989.21 988.97 988.81 988.74 988.78 988.94 989.23 989.65 990.22 990.91 991.70 992.57 993.48 994.40
1002.48 1002.03 1001.64 1001.30 1001.02 1000.77 1000.52 1000.25 999.93 999.53 999.04 998.44 997.74 996.94 996.09 995.20 994.31 993.45 992.65 991.93 991.29 990.75 990.30 989.93 989.64 989.44 989.31 989.26 989.31 989.46 989.74 990.13 990.65 991.29 992.05 992.89 993.78 994.70
1003.20 1002.72 1002.31 1001.96 1001.67 1001.42 1001.18 1000.94 1000.64 1000.27 999.79 999.21 998.51 997.71 996.84 995.93 995.01 994.11 993.28 992.53 991.88 991.34 990.90 990.56 990.31 990.14 990.05 990.04 990.10 990.25 990.50 990.86 991.34 991.93 992.63 993.43 994.30 995.22
1003.91 1003.40 1002.96 1002.58 1002.27 1002.02 1001.79 1001.54 1001.26 1000.90 1000.45 999.88 999.19 998.40 997.53 996.61 995.68 994.78 993.94 993.18 992.55 992.03 991.62 991.32 991.12 991.01 990.96 990.97 991.06 991.21 991.44 991.76 992.18 992.72 993.36 994.11 994.94 995.83
1004.58 1004.03 1003.55 1003.14 1002.81 1002.53 1002.28 1002.04 1001.75 1001.40 1000.96 1000.40 999.73 998.95 998.10 997.19 996.27 995.38 994.55 993.83 993.22 992.73 992.37 992.12 991.98 991.91 991.91 991.96 992.06 992.21 992.42 992.71 993.08 993.56 994.13 994.82 995.59 996.44
Thickness
5625 5623 5620 5619 5616 5614 5612 5610 5608 5608 5609 5611 5611 5614 5614 5614 5615 5614 5615 5617 5618 5619 5620 5621 5622 5624 5625 5627 5629 5631 5633 5635 5637 5639 5640 5642 5643 5643
5621 5619 5617 5615 5613 5611 5609 5607 5605 5603 5604 5606 5606 5607 5608 5609 5610 5610 5610 5611 5612 5614 5615 5616 5617 5618 5619 5620 5622 5624 5626 5627 5630 5631 5633 5635 5636 5636
5618 5616 5614 5612 5610 5608 5606 5604 5602 5599 5600 5602 5601 5602 5603 5604 5605 5606 5606 5607 5608 5609 5610 5611 5611 5612 5613 5615 5616 5617 5619 5620 5622 5624 5626 5627 5629 5630
5614 5612 5611 5609 5606 5605 5602 5601 5599 5597 5595 5596 5598 5598 5599 5600 5600 5601 5602 5603 5603 5605 5605 5605 5606 5606 5607 5608 5609 5610 5611 5612 5614 5616 5618 5620 5621 5622
5611 5609 5608 5605 5603 5602 5599 5597 5596 5595 5592 5591 5593 5593 5594 5595 5595 5596 5597 5597 5598 5600 5600 5601 5601 5601 5601 5602 5602 5603 5604 5605 5606 5608 5610 5612 5614 5615
5608 5606 5605 5603 5601 5599 5597 5595 5594 5592 5590 5588 5588 5589 5589 5589 5589 5590 5591 5592 5592 5594 5595 5596 5596 5595 5596 5596 5596 5597 5597 5597 5598 5600 5602 5604 5606 5607
5606 5604 5603 5601 5600 5598 5596 5594 5592 5590 5588 5586 5585 5584 5585 5584 5584 5584 5584 5585 5587 5587 5589 5590 5590 5591 5591 5591 5591 5591 5591 5591 5592 5593 5595 5597 5598 5600
5603 5602 5601 5600 5599 5596 5595 5593 5591 5588 5586 5583 5582 5581 5582 5581 5580 5579 5578 5579 5581 5582 5582 5584 5585 5585 5585 5586 5586 5586 5586 5586 5587 5587 5588 5589 5592 5594
5599 5598 5598 5598 5596 5594 5592 5591 5589 5587 5584 5582 5580 5579 5578 5578 5575 5575 5573 5573 5574 5576 5575 5578 5579 5579 5580 5581 5581 5581 5581 5580 5581 5581 5582 5583 5585 5587
5597 5596 5595 5594 5593 5590 5589 5588 5586 5585 5583 5580 5578 5577 5575 5573 5571 5569 5568 5567 5568 5568 5568 5570 5572 5573 5574 5574 5575 5575 5575 5575 5575 5575 5576 5577 5578 5580
5594 5593 5591 5590 5589 5586 5585 5583 5582 5581 5580 5578 5575 5574 5572 5569 5567 5564 5563 5563 5564 5565 5562 5562 5565 5566 5567 5569 5569 5569 5570 5570 5571 5571 5571 5572 5573 5574
5590 5589 5587 5585 5583 5581 5579 5578 5577 5577 5575 5574 5572 5570 5568 5565 5563 5560 5559 5557 5558 5559 5558 5556 5558 5558 5561 5563 5563 5563 5563 5564 5565 5566 5567 5567 5567 5567
5585 5584 5582 5580 5578 5576 5575 5573 5572 5570 5569 5567 5566 5565 5563 5561 5559 5556 5554 5552 5552 5553 5553 5550 5552 5552 5552 5555 5556 5557 5557 5559 5560 5561 5561 5562 5562 5562
5579 5578 5576 5575 5574 5572 5570 5568 5566 5565 5564 5562 5561 5560 5558 5556 5554 5552 5550 5549 5548 5548 5548 5546 5545 5546 5546 5548 5551 5552 5552 5553 5554 5555 5557 5557 5557 5557
5574 5573 5571 5570 5569 5568 5565 5563 5562 5560 5558 5557 5555 5554 5552 5550 5549 5548 5547 5545 5544 5544 5543 5541 5540 5540 5540 5542 5544 5546 5547 5547 5548 5549 5551 5552 5553 5552
5570 5569 5567 5565 5564 5562 5560 5558 5556 5554 5552 5550 5549 5547 5546 5545 5544 5543 5542 5541 5541 5541 5539 5537 5536 5535 5536 5537 5538 5539 5540 5541 5543 5544 5545 5546 5548 5549
5566 5565 5563 5561 5560 5558 5555 5553 5551 5549 5546 5544 5542 5541 5540 5540 5539 5537 5536 5536 5535 5535 5535 5533 5532 5531 5531 5531 5533 5534 5534 5535 5536 5537 5538 5541 5543 5545
5562 5560 5558 5556 5554 5551 5550 5548 5546 5543 5541 5539 5537 5535 5534 5533 5533 5531 5530 5530 5529 5529 5528 5527 5526 5527 5527 5528 5527 5528 5529 5529 5530 5531 5533 5535 5539 5540
5558 5556 5553 5551 5549 5546 5544 5542 5540 5537 5534 5533 5531 5530 5528 5527 5526 5526 5525 5524 5523 5522 5522 5520 5520 5520 5523 5525 5526 5523 5523 5523 5524 5526 5527 5529 5533 5536
5555 5553 5549 5547 5544 5541 5538 5535 5533 5531 5528 5526 5524 5523 5521 5520 5520 5519 5518 5516 5516 5516 5515 5515 5514 5514 5514 5516 5517 5518 5517 5517 5518 5520 5522 5523 5526 5528
5552 5548 5545 5542 5539 5536 5533 5530 5527 5525 5522 5520 5518 5516 5515 5514 5513 5512 5512 5510 5510 5510 5509 5509 5508 5507 5507 5508 5510 5512 5512 5511 5511 5513 5515 5517 5520 5522
5548 5545 5541 5538 5535 5531 5528 5525 5523 5520 5518 5516 5513 5511 5509 5508 5507 5507 5506 5506 5506 5505 5504 5504 5504 5504 5504 5504 5505 5505 5506 5506 5506 5507 5508 5510 5513 5516
5545 5542 5538 5535 5531 5528 5525 5522 5519 5516 5513 5511 5509 5507 5505 5504 5503 5503 5502 5502 5502 5502 5501 5501 5500 5500 5499 5499 5499 5499 5500 5501 5501 5502 5503 5503 5504 5506